x

Port Washington, Wi (pwaw3) Weather Station

5:40pm - Fri 31st Oct 2014 All times are CDT. -5 hours from GMT.

  • Wind
    13mph, 20mph gusts
  • Air Temp 37°f
  • Sea Pressure 1028.1mb
  • Port Washington, Wi
  • Port Washington, Wi

More Historic Weather Station data

Upgrade to MSW Pro to gain access to the past 30 days of data for over 8000 Wavebouys and Weather Stations around the globe.

Join Pro

Comparision Forecast

View Surf forecast
   
Fri 10/31 5:40pm 13 20 mph 1028.1mb 37f
5:30pm 10 28 mph 1028.1mb 37f
5:20pm 14
mph
1028.1mb 37f
5:10pm 13 24 mph 1028.1mb 38f
5:00pm 14 23 mph 1027.8mb 38f
4:40pm 14 29 mph 1027.4mb 38f
4:32pm 15 29 mph 1027.4mb 38f
4:30pm 9 22 mph 1027.4mb 38f
4:20pm 11 28 mph 1027.1mb 38f
4:10pm 14 30 mph 1027.1mb 38f
4:00pm 17 23 mph 1026.8mb 38f
3:40pm 14 29 mph 1026.4mb 38f
3:30pm 16 26 mph 1026.4mb 38f
3:20pm 17 23 mph 1026.4mb 38f
3:10pm 9 23 mph 1026.4mb 38f
3:00pm 13 24 mph 1026.1mb 38f
2:40pm 10 26 mph 1026.1mb 39f
2:30pm 14 26 mph 1025.7mb 39f
2:20pm 18 31 mph 1025.7mb 39f
2:10pm 15 30 mph 1025.7mb 39f
2:00pm 14 28 mph 1025.7mb 39f
1:40pm 17 28 mph 1025.1mb 40f
1:30pm 17 31 mph 1025.1mb 39f
1:20pm 13 29 mph 1025.1mb 38f
1:10pm 18 29 mph 1025.1mb 38f
1:00pm 20 32 mph 1024.7mb 39f
12:40pm 18 29 mph 1024.4mb 38f
12:30pm 14 30 mph 1024.7mb 38f
12:25pm 15 30 mph 1024.4mb 38f
12:20pm 13 26 mph 1024.4mb 38f
12:10pm 11 30 mph 1024.7mb 38f
12:00pm 17 28 mph 1024.4mb 38f
11:40am 13 26 mph 1024.4mb 38f
11:30am 17 29 mph 1024.4mb 37f
11:21am 20
mph
1024mb 37f
11:20am 20 31 mph 1024mb 37f
11:10am 17 30 mph 1024mb 38f
11:00am 16 29 mph 1023.7mb 37f
10:40am 17 32 mph 1023.7mb 37f
10:30am 10 34 mph 1023.4mb 37f
10:21am 18
mph
1023.4mb 37f
10:20am 18 39 mph 1023.4mb 37f
10:10am 15 29 mph 1023mb 37f
10:00am 17 29 mph 1023mb 37f
9:40am 16 26 mph 1022.4mb 36f
9:30am 17 31 mph 1022.4mb 36f
9:20am 15
mph
1022mb 36f
9:10am 15 29 mph 1022mb 36f
9:08am 16 29 mph 1022mb 36f
9:00am 15 24 mph 1022mb 36f
8:40am 15 22 mph 1021.7mb 36f
8:30am 16 26 mph 1021.7mb 36f
8:20am 10 24 mph 1021.3mb 36f
8:10am 14 24 mph 1021.3mb 36f
8:00am 17 25 mph 1021.3mb 36f
7:40am 17 28 mph 1021mb 37f
7:30am 13 25 mph 1020.7mb 37f
7:20am 11 22 mph 1020.7mb 37f
7:10am 14 25 mph 1020.3mb 37f
7:00am 11 22 mph 1020mb 37f
6:40am 14 23 mph 1020mb 37f
6:30am 15 29 mph 1020mb 37f
6:29am 13 29 mph 1019.6mb 37f
6:20am 10 22 mph 1019.6mb 37f
6:10am 9 18 mph 1019.6mb 37f
6:00am 11 18 mph 1019.6mb 37f
5:40am 10 18 mph 1019.3mb 36f
5:30am 10 18 mph 1019.3mb 36f
5:20am 13 23 mph 1019.3mb 36f
5:10am 11 17 mph 1019mb 36f
5:00am 11 21 mph 1018.6mb 37f
4:40am 10 23 mph 1018.3mb 38f
4:30am 13 20 mph 1017.9mb 39f
4:20am 14 22 mph 1017.9mb 40f
4:10am 9 18 mph 1017.9mb 40f
4:00am 11 18 mph 1017.9mb 40f
3:40am 11 25 mph 1017.9mb 40f
3:30am 14 25 mph 1017.9mb 41f
3:20am 14 20 mph 1017.6mb 42f
3:10am 11 20 mph 1017.6mb 42f
3:00am 13 24 mph 1017.6mb 42f
2:40am 15 22 mph 1017.3mb 42f
2:30am 13 25 mph 1017.3mb 42f
2:20am 14 17 mph 1016.9mb 43f
2:10am 7 18 mph 1016.9mb 43f
2:00am 10 20 mph 1016.9mb 43f
1:40am 8 21 mph 1016.9mb 44f
1:30am 13 20 mph 1016.9mb 44f
1:20am 8 13 mph 1016.9mb 44f
1:10am 6 16 mph 1016.9mb 44f
1:00am 9 20 mph 1016.9mb 45f
12:40am 9 18 mph 1016.9mb 45f
12:30am 9 15 mph 1016.9mb 45f
12:20am 7 16 mph 1016.9mb 46f
12:10am 7 17 mph 1016.9mb 46f
12:00am 9 18 mph 1016.9mb 46f
Thu 10/30 11:40pm 8 18 mph 1016.9mb 46f
11:30pm 10 18 mph 1016.9mb 46f
11:20pm 9 20 mph 1016.9mb 47f
11:10pm 15 24 mph 1016.9mb 47f
11:00pm 7 16 mph 1016.9mb 47f
10:40pm 8 15 mph 1016.9mb 48f
10:30pm 9 15 mph 1016.9mb 48f
10:20pm 10 17 mph 1016.9mb 48f
10:10pm 9 15 mph 1017.3mb 48f
10:00pm 6 9 mph 1016.9mb 48f
9:40pm 7 10 mph 1016.9mb 48f
9:30pm 3 8 mph 1016.9mb 48f
9:20pm 5 8 mph 1016.9mb 48f
9:10pm 5 8 mph 1016.9mb 48f
9:00pm 5 8 mph 1016.9mb 48f
8:40pm 6 8 mph 1016.9mb 48f
8:30pm 3 6 mph 1016.9mb 48f
8:20pm 5 6 mph 1016.9mb 48f
8:10pm 2 6 mph 1017.3mb 48f
8:00pm 3 6 mph 1017.3mb 48f
7:50pm 3 5 mph 1017.3mb 48f
7:40pm 2 5 mph 1017.6mb 48f
7:30pm 2 3 mph 1017.6mb 48f
7:20pm 3
mph
1017.6mb 48f
7:10pm 2 5 mph 1017.6mb 48f
7:00pm 2 5 mph 1017.6mb 48f
6:50pm 3 5 mph 1017.6mb 49f
6:40pm 3 5 mph 1017.6mb 49f
6:30pm 3 7 mph 1017.6mb 49f
6:20pm 5 7 mph 1017.6mb 49f
6:10pm 6 8 mph 1017.6mb 49f
6:00pm 5 7 mph 1017.6mb 50f
5:50pm 5 9 mph 1017.6mb 50f
5:40pm 7 9 mph 1017.9mb 50f
5:30pm 5 8 mph 1017.9mb 50f
5:20pm 7 9 mph 1017.9mb 50f
5:10pm 7 10 mph 1017.9mb 50f
5:00pm 8 10 mph 1017.9mb 51f
4:50pm 6 13 mph 1017.9mb 51f
4:40pm 7 13 mph 1017.9mb 51f
4:30pm 8 13 mph 1017.9mb 51f
4:20pm 6 11 mph 1017.9mb 52f
4:10pm 7 9 mph 1017.9mb 52f
4:00pm 6 9 mph 1017.6mb 52f
3:50pm 6 13 mph 1017.6mb 52f
3:40pm 7 15 mph 1017.6mb 52f
3:30pm 6 13 mph 1017.6mb 52f
3:20pm 8 15 mph 1017.3mb 52f
3:10pm 11 15 mph 1017.3mb 53f
3:00pm 8 13 mph 1017.6mb 53f
2:50pm 9 15 mph 1017.6mb 52f
2:40pm 6 11 mph 1017.6mb 52f
2:30pm 9 13 mph 1017.6mb 53f
2:20pm 8 13 mph 1017.6mb 52f
2:10pm 7 14 mph 1017.9mb 53f
2:00pm 8 14 mph 1017.9mb 52f
1:50pm 10 14 mph 1017.9mb 52f
1:40pm 11 15 mph 1018.3mb 51f
1:30pm 3 14 mph 1018.3mb 52f
1:20pm 8 15 mph 1018.3mb 51f
1:10pm 9 14 mph 1018.6mb 51f
1:00pm 8 15 mph 1018.6mb 51f
12:50pm 9 17 mph 1019mb 51f
12:40pm 8 15 mph 1019mb 50f
12:30pm 11 16 mph 1019mb 50f
12:20pm 8 17 mph 1019mb 51f
12:10pm 9 14 mph 1019mb 50f
12:00pm 7 11 mph 1019.3mb 50f
11:50am 7 11 mph 1019.3mb 49f
11:40am 9 14 mph 1019.6mb 48f
11:30am 9 15 mph 1019.6mb 48f
11:20am 8 14 mph 1019.6mb 48f
11:10am 10 14 mph 1019.6mb 47f
11:00am 8 13 mph 1019.6mb 47f
10:50am 9 15 mph 1019.6mb 46f
10:40am 9 13 mph 1019.6mb 46f
10:30am 7 11 mph 1019.6mb 46f
10:20am 6 10 mph 1019.6mb 45f
10:10am 9 11 mph 1019.6mb 44f
10:00am 8 10 mph 1020mb 45f
9:50am 6 10 mph 1020mb 44f
9:40am 7 11 mph 1020mb 43f
9:30am 9 14 mph 1020mb 42f
9:20am 7 9 mph 1020mb 43f
9:10am 6 7 mph 1020mb 44f
9:00am 5 7 mph 1020mb 43f
8:50am 5 6 mph 1020mb 43f
8:40am 5 7 mph 1020mb 42f
8:30am 5 7 mph 1020mb 42f
8:20am 6 7 mph 1020mb 41f
8:10am 6 7 mph 1020mb 40f
8:00am 6 8 mph 1020mb 39f
7:50am 6 7 mph 1020mb 38f
7:40am 5 8 mph 1020mb 38f
7:30am 6 7 mph 1020mb 37f
7:20am 5 7 mph 1020mb 38f
7:10am 6 7 mph 1020mb 38f
7:00am 6 7 mph 1020mb 38f
6:50am 6 7 mph 1020mb 38f
6:40am 6
mph
1020mb 38f
6:30am 5 7 mph 1020mb 38f
6:20am 6
mph
1020mb 38f
6:10am 5 6 mph 1020.3mb 38f
6:00am 5 6 mph 1020.3mb 38f
5:50am 5 6 mph 1020.3mb 38f
5:40am 5 7 mph 1020.3mb 38f
5:30am 5 6 mph 1020.3mb 38f
5:20am 5 6 mph 1020mb 38f
5:10am 5 6 mph 1020.3mb 38f
5:00am 5 7 mph 1020mb 38f
4:50am 6 7 mph 1020mb 38f
4:40am 6 8 mph 1020mb 38f
4:30am 7 8 mph 1020mb 38f
4:20am 6 7 mph 1020mb 38f
4:10am 5 7 mph 1020mb 38f
4:00am 5 7 mph 1020mb 38f
3:50am 5 6 mph 1020mb 38f
3:40am 5 7 mph 1020mb 38f
3:30am 6 8 mph 1020mb 38f
3:20am 6 7 mph 1020mb 38f
3:10am 5 7 mph 1020mb 38f
3:00am 6 8 mph 1020mb 38f
2:50am 6 7 mph 1020mb 38f
2:40am 5 7 mph 1020.3mb 38f
2:30am 5 7 mph 1020.3mb 38f
2:20am 5 7 mph 1020.3mb 38f
2:10am 5 7 mph 1020.3mb 38f
2:00am 6 7 mph 1020.3mb 38f
1:50am 5 7 mph 1020.3mb 38f
1:40am 6 7 mph 1020.7mb 38f
1:30am 5 6 mph 1020.3mb 38f
1:20am 5 6 mph 1020.7mb 37f
1:10am 5
mph
1020.3mb 38f
1:00am 5
mph
1020.7mb 38f
12:50am 5 6 mph 1020.7mb 38f
12:40am 5 6 mph 1020.7mb 39f
12:30am 5 6 mph 1020.7mb 39f
12:20am 5 6 mph 1020.7mb 39f
12:10am 5 6 mph 1020.7mb 38f
12:00am 6
mph
1020.7mb 38f
Wed 10/29 11:40pm 5 6 mph 1020.7mb 38f
11:30pm 5 6 mph 1020.7mb 39f
11:20pm 5 6 mph 1020.7mb 39f
11:10pm 5
mph
1020.7mb 39f
11:00pm 5
mph
1020.7mb 39f
10:50pm 3 5 mph 1020.7mb 40f
10:40pm 3 5 mph 1020.7mb 40f
10:30pm 3 5 mph 1020.3mb 41f
10:20pm 3 5 mph 1020.7mb 41f
10:10pm 3 5 mph 1020.3mb 42f
10:00pm 5 6 mph 1020.7mb 42f
9:50pm 5 6 mph 1020.7mb 43f
9:40pm 3 5 mph 1020.3mb 43f
9:30pm  -  2 mph 1020.3mb 44f
9:20pm 1 2 mph 1020.7mb 45f
9:10pm 1 3 mph 1020.7mb 45f
9:00pm 2 6 mph 1020.7mb 46f
8:50pm 6 8 mph 1020.7mb 46f
8:40pm 3 5 mph 1020.7mb 46f
8:30pm 2 5 mph 1020.3mb 46f
8:20pm 3 5 mph 1020.3mb 46f
8:10pm 5 7 mph 1020.3mb 47f
8:00pm 2 6 mph 1020.7mb 47f
7:50pm 3 6 mph 1020.7mb 47f
7:40pm 3 7 mph 1020.7mb 47f
7:30pm 5 7 mph 1020.7mb 47f
7:20pm 3 8 mph 1020.7mb 47f
7:10pm 6 8 mph 1020.3mb 47f
7:00pm 6 9 mph 1020.3mb 47f
6:50pm 5 8 mph 1020.3mb 47f
6:40pm 5 10 mph 1020.3mb 47f
6:30pm 6 10 mph 1020.3mb 47f
6:20pm 7 11 mph 1020mb 47f
6:10pm 8 14 mph 1020mb 47f
6:00pm 8 10 mph 1020mb 47f
5:50pm 6 10 mph 1020mb 47f
5:40pm 8 13 mph 1019.6mb 47f
5:30pm 8 11 mph 1019.6mb 47f
5:20pm 9 13 mph 1019.6mb 48f
5:10pm 7 11 mph 1019.6mb 48f
5:00pm 9 16 mph 1019.3mb 48f
4:50pm 7 11 mph 1019.3mb 48f
4:40pm 6 13 mph 1019.3mb 48f
4:30pm 8 14 mph 1019.3mb 48f
4:20pm 7 15 mph 1019.3mb 48f
4:10pm 10 14 mph 1019mb 48f
4:00pm 6 13 mph 1019mb 48f
3:50pm 6 14 mph 1018.6mb 48f
3:40pm 10 14 mph 1018.6mb 48f
3:30pm 9 15 mph 1018.6mb 48f
3:20pm 9 15 mph 1018.6mb 49f
3:10pm 8 13 mph 1018.6mb 49f
3:00pm 9 14 mph 1018.3mb 48f
2:50pm 8 13 mph 1018.3mb 49f
2:40pm 6 11 mph 1018.3mb 48f
2:30pm 8 13 mph 1018.3mb 49f
2:20pm 9 14 mph 1018.3mb 48f
2:10pm 7 15 mph 1018.3mb 48f
2:00pm 7 14 mph 1018.3mb 48f
1:50pm 9 14 mph 1018.3mb 48f
1:40pm 7 14 mph 1018.3mb 48f
1:30pm 11 14 mph 1018.3mb 48f
1:20pm 8 16 mph 1017.9mb 48f
1:10pm 9 16 mph 1018.3mb 48f
1:00pm 9 18 mph 1017.9mb 47f
12:50pm 10 18 mph 1018.3mb 48f
12:40pm 10 16 mph 1017.9mb 47f
12:30pm 9 18 mph 1018.3mb 47f
12:20pm 11 18 mph 1017.9mb 47f
12:10pm 13 21 mph 1017.9mb 47f
12:00pm 13 20 mph 1017.9mb 47f
11:50am 9 17 mph 1017.9mb 47f
11:40am 13 20 mph 1017.9mb 47f
11:30am 10 18 mph 1017.9mb 47f
11:20am 10 18 mph 1017.9mb 46f
11:10am 13 20 mph 1017.9mb 45f
11:00am 8 17 mph 1017.9mb 45f
10:50am 14 20 mph 1017.6mb 45f
10:40am 10 18 mph 1017.6mb 46f
10:30am 13 21 mph 1017.6mb 45f
10:20am 11 21 mph 1017.3mb 45f
10:10am 9 22 mph 1017.3mb 45f
10:00am 9 18 mph 1016.9mb 45f
9:50am 14 22 mph 1016.9mb 45f
9:40am 11 23 mph 1016.9mb 45f
9:30am 14 21 mph 1016.6mb 44f
9:20am 9 17 mph 1016.6mb 44f
9:10am 9 18 mph 1016.3mb 44f
9:00am 10 18 mph 1016.6mb 44f
8:50am 14 25 mph 1016.3mb 44f
8:40am 10 16 mph 1016.3mb 43f
8:30am 9 25 mph 1016.3mb 43f
8:20am 11 21 mph 1016.3mb 43f
8:10am 14 21 mph 1015.9mb 43f
8:00am 9 23 mph 1015.9mb 43f
7:50am 8 20 mph 1015.6mb 43f
7:40am 10 17 mph 1015.6mb 43f
7:30am 10 18 mph 1015.2mb 43f
7:20am 8 17 mph 1015.2mb 43f
7:10am 10 16 mph 1015.2mb 43f
7:00am 13 21 mph 1015.2mb 43f
6:50am 10 20 mph 1014.9mb 43f
6:40am 9 20 mph 1014.9mb 43f
6:30am 11 22 mph 1014.9mb 44f
6:20am 11 21 mph 1014.9mb 44f
6:10am 14 23 mph 1014.6mb 44f
6:00am 9 20 mph 1014.2mb 44f
5:50am 8 20 mph 1014.2mb 44f
5:40am 11 20 mph 1014.2mb 44f
5:30am 10 21 mph 1014.2mb 45f
5:20am 9 18 mph 1014.2mb 45f
5:10am 10 20 mph 1014.2mb 45f
5:00am 10 21 mph 1013.9mb 45f
4:50am 10 18 mph 1013.9mb 45f
4:40am 10 17 mph 1013.9mb 45f
4:30am 9 22 mph 1013.9mb 45f
4:20am 11 18 mph 1013.5mb 45f
4:10am 8 15 mph 1013.5mb 45f
4:00am 10 16 mph 1013.5mb 45f
3:50am 11 18 mph 1013.2mb 45f
3:40am 11 18 mph 1013.2mb 45f
3:30am 13 18 mph 1013.2mb 45f
3:20am 11 18 mph 1013.2mb 46f
3:10am 9 18 mph 1013.2mb 46f
3:00am 10 23 mph 1013.2mb 46f
2:50am 11 20 mph 1013.2mb 46f
2:40am 8 28 mph 1013.2mb 46f
2:30am 13 25 mph 1012.9mb 46f
2:20am 15 23 mph 1012.9mb 46f
2:10am 9 17 mph 1012.9mb 46f
2:00am 9 20 mph 1012.9mb 46f
1:50am 9 15 mph 1012.9mb 47f
1:40am 9 15 mph 1012.9mb 47f
1:30am 10 20 mph 1012.9mb 47f
1:20am 8 22 mph 1012.9mb 47f
1:10am 11 22 mph 1012.5mb 47f
1:00am 16 23 mph 1012.5mb 47f
12:50am 16 25 mph 1012.5mb 47f
12:40am 9 23 mph 1012.5mb 47f
12:30am 13 24 mph 1012.5mb 47f
12:20am 10 22 mph 1012.5mb 47f
12:10am 10 23 mph 1012.5mb 48f
12:00am 13 26 mph 1012.2mb 48f
Tue 10/28 11:50pm 13 17 mph 1012.2mb 48f
11:40pm 10 16 mph 1012.2mb 48f
11:30pm 9 16 mph 1012.2mb 48f
11:20pm 10 15 mph 1012.2mb 48f
11:10pm 8 15 mph 1012.2mb 48f
11:00pm 10 16 mph 1012.2mb 48f
10:50pm 8 15 mph 1012.2mb 48f
10:40pm 7 14 mph 1012.2mb 48f
10:30pm 7 14 mph 1012.5mb 48f
10:20pm 8 14 mph 1012.5mb 49f
10:10pm 9 14 mph 1012.5mb 48f
10:00pm 9 13 mph 1012.5mb 48f
9:50pm 8 14 mph 1012.9mb 48f
9:40pm 9 14 mph 1012.9mb 48f
9:30pm 9 16 mph 1012.9mb 48f
9:20pm 9 15 mph 1012.9mb 48f
9:10pm 10 15 mph 1012.9mb 48f
9:00pm 9 14 mph 1012.9mb 48f
8:50pm 11 15 mph 1012.9mb 49f
8:40pm 8 16 mph 1012.9mb 49f
8:30pm 9 13 mph 1012.5mb 49f
8:20pm 9 13 mph 1012.5mb 49f
8:10pm 8 13 mph 1012.5mb 49f
8:00pm 7 11 mph 1012.5mb 49f
7:50pm 8 11 mph 1012.5mb 50f
7:40pm 7 11 mph 1012.5mb 50f
7:30pm 7 10 mph 1012.5mb 50f
7:20pm 7 13 mph 1012.5mb 50f
7:10pm 7 14 mph 1012.5mb 50f
7:00pm 8 15 mph 1012.5mb 50f
6:50pm 10 17 mph 1012.5mb 50f
6:40pm 7 15 mph 1012.2mb 51f
6:30pm 9 14 mph 1012.2mb 51f
6:20pm 9 16 mph 1012.2mb 51f
6:10pm 9 17 mph 1011.9mb 51f
6:00pm 7 17 mph 1011.5mb 51f
5:50pm 14 22 mph 1011.5mb 51f
5:40pm 14 22 mph 1011.5mb 51f
5:30pm 10 24 mph 1011.5mb 51f
5:20pm 10 22 mph 1011.2mb 52f
5:10pm 9 20 mph 1011.2mb 52f
5:00pm 14 23 mph 1011.2mb 52f
4:50pm 10 23 mph 1011.2mb 52f
4:40pm 16 28 mph 1010.8mb 52f
4:30pm 10 25 mph 1010.8mb 53f
4:20pm 15 23 mph 1010.8mb 53f
4:10pm 16 28 mph 1010.5mb 53f
4:00pm 13 23 mph 1010.8mb 53f
3:50pm 18 29 mph 1010.2mb 53f
3:40pm 14 24 mph 1010.2mb 53f
3:30pm 16 26 mph 1010.5mb 53f
3:20pm 13 28 mph 1009.8mb 53f
3:10pm 10 29 mph 1010.2mb 53f
3:00pm 18 29 mph 1009.8mb 54f
2:59pm 17 29 mph 1009.8mb 54f
2:50pm 15 24 mph 1009.8mb 54f
2:40pm 14 28 mph 1009.5mb 54f
2:30pm 18 24 mph 1009.5mb 54f
2:20pm 16 30 mph 1009.5mb 55f
2:10pm 10 26 mph 1009.5mb 55f
2:00pm 16 30 mph 1009.1mb 55f
1:50pm 17 30 mph 1009.1mb 56f
1:40pm 20 28 mph 1009.1mb 57f
1:30pm 14 28 mph 1008.8mb 56f
1:20pm 13 25 mph 1008.8mb 56f
1:10pm 16 26 mph 1008.8mb 56f
1:00pm 15 25 mph 1008.5mb 56f
12:50pm 16 28 mph 1008.5mb 56f
12:40pm 13 22 mph 1008.5mb 56f
12:30pm 13 24 mph 1008.1mb 56f
12:20pm 17 25 mph 1008.1mb 55f
12:10pm 14 20 mph 1008.1mb 57f
12:00pm 9 18 mph 1007.8mb 56f
11:50am 13 17 mph 1007.8mb 56f
11:40am 14 18 mph 1007.8mb 57f
11:30am 13 23 mph 1007.8mb 57f
11:20am 15 23 mph 1007.8mb 57f
11:10am 15 23 mph 1007.8mb 57f
11:00am 11 15 mph 1007.8mb 57f
10:50am 13 17 mph 1007.5mb 57f
10:40am 10 18 mph 1007.8mb 56f
10:30am 8 17 mph 1007.8mb 56f
10:20am 10 17 mph 1007.5mb 55f
10:10am 9 22 mph 1007.5mb 55f
10:00am 9 20 mph 1007.8mb 55f
9:50am 14 20 mph 1007.8mb 55f
9:40am 9 18 mph 1007.5mb 54f
9:30am 7 17 mph 1007.5mb 54f
9:20am 11 17 mph 1007.5mb 54f
9:10am 10 15 mph 1007.1mb 54f
9:00am 10 17 mph 1007.1mb 54f
8:50am 10 17 mph 1007.1mb 53f
8:40am 10 24 mph 1006.8mb 53f
8:30am 14 22 mph 1006.4mb 53f
8:20am 10 22 mph 1006.1mb 54f
8:10am 15 24 mph 1006.1mb 54f
8:00am 15 28 mph 1005.8mb 54f
7:50am 9 18 mph 1005.4mb 54f
7:40am 17 24 mph 1005.4mb 54f
7:30am 11 18 mph 1005.1mb 55f
7:20am 15 23 mph 1005.1mb 55f
7:10am 11 23 mph 1005.4mb 55f
7:00am 14 21 mph 1005.4mb 55f
6:50am 13 23 mph 1005.4mb 56f
6:40am 11 22 mph 1005.1mb 56f
6:30am 14 22 mph 1005.1mb 57f
6:20am 5 15 mph 1005.1mb 58f
6:10am 9 20 mph 1005.1mb 58f
6:00am 7 17 mph 1004.7mb 58f
5:50am 13 24 mph 1004.7mb 58f
5:40am 11 21 mph 1005.1mb 59f
5:30am 10 17 mph 1004.7mb 59f
5:20am 16 21 mph 1004.7mb 60f
5:10am 9 21 mph 1004.7mb 60f
5:00am 11 22 mph 1004.7mb 60f
4:50am 7 15 mph 1004.4mb 60f
4:40am 8 15 mph 1004.1mb 60f
4:30am 7 14 mph 1004.1mb 61f
4:20am 10 23 mph 1003.7mb 61f
4:10am 13 23 mph 1003.7mb 61f
4:00am 16 30 mph 1003.4mb 62f
3:58am 16 30 mph 1003.4mb 62f
3:50am 13 25 mph 1003mb 62f
3:40am 14 23 mph 1003.4mb 63f
3:30am 8 16 mph 1003mb 63f
3:20am 10 18 mph 1002.7mb 64f
3:10am 13 21 mph 1002.7mb 64f
3:00am 10 16 mph 1002.7mb 65f
2:50am 13 20 mph 1002.7mb 65f
2:40am 14 17 mph 1002.4mb 66f
2:30am 14 24 mph 1002mb 66f
2:20am 14 21 mph 1001.7mb 67f
2:10am 10 20 mph 1001.7mb 66f
2:00am 9 15 mph 1001.7mb 66f
1:50am 5 10 mph 1001.4mb 65f
1:40am 6 9 mph 1001.7mb 65f
1:30am 7 11 mph 1001.4mb 62f
1:20am 6 10 mph 1001.4mb 57f
1:10am 9 11 mph 1001.4mb 56f